Regional Weather Roundup
Issued by NWS

Home | Current Version | Previous Version | Graphics & Text | Print | Product List | Glossary Off
Versions: 1 2 3 4 5 6 7 8 9 10 11 12 13 14 15 16 17 18 19 20 21 22 23 24 25 26 27 28 29 30 31 32 33 34 35 36 37 38 39 40 41 42 43 44 45 46 47 48 49 50

000
ASUS43 KMKX 300911
RWRWI

WISCONSIN REGIONAL WEATHER ROUNDUP
NATIONAL WEATHER SERVICE MILWAUKEE/SULLIVAN WI
400 AM CDT TUE JUN 30 2015

NOTE: "FAIR" INDICATES FEW OR NO CLOUDS BELOW 12,000 FEET WITH NO
SIGNIFICANT WEATHER AND/OR OBSTRUCTIONS TO VISIBILITY.

WIZ001-002-006>008-014>016-023>028-301000-
NORTHWEST WISCONSIN

CITY           SKY/WX    TMP DP  RH WIND       PRES   REMARKS
SUPERIOR ARPT  CLOUDY    60  60  99 NE5       29.88R
ASHLAND        CLOUDY    56  55  97 NE14      29.90R
HAYWARD        MOCLDY    57  56  96 N3        29.86F
SIREN          CLEAR     57  56  97 N3        29.87S FOG
CUMBERLAND     CLOUDY    59  59 100 N5        29.86S FOG
RICE LAKE      FOG       58  57  97 W3        29.87R VSB<1/4
CHETEK         FOG       59  59 100 N6        29.85S VSB 1/2
LADYSMITH      CLOUDY    60  59  96 NE10      29.86S
EAU CLAIRE     PTCLDY    53  52  96 CALM      29.83R
MENOMONIE      CLEAR     58  58  98 CALM      29.84S FOG
NEW RICHMOND   FOG       58  58 100 N3        29.86S VSB 1
OSCEOLA        MOCLDY    60  60 100 N3        29.88F FOG
$$

WIZ003>005-009-010-017-018-301000-
NORTH CENTRAL WISCONSIN

CITY           SKY/WX    TMP DP  RH WIND       PRES   REMARKS
MANITOWISH WTR CLOUDY    56  56  99 N9        29.85R
ARBOR VITAE    MOCLDY    59  57  92 N10       29.84R
WOODRUFF       MOCLDY    59  57  92 N10       29.84R
RHINELANDER    CLOUDY    59  56  89 N7        29.84R
EAGLE RIVER    CLOUDY    58  58  99 N8        29.83S
LAND O LAKES   CLOUDY    55  55  98 N12       29.85S
PHILLIPS       CLOUDY    57  57  99 CALM      29.84R
TOMAHAWK       CLOUDY    57  56  97 N5        29.84R
MEDFORD        CLOUDY    58  58  98 N7        29.83R FOG
MERRILL        MOCLDY    60  60 100 N5        29.82S
$$

WIZ029-030-035-036-043>047-301000-
CENTRAL WISCONSIN

CITY           SKY/WX    TMP DP  RH WIND       PRES   REMARKS
WAUSAU         CLOUDY    61  59  93 N6        29.80R
MOSINEE        NOT AVBL
MARSHFIELD     CLOUDY    60  57  89 N9        29.81R FOG
STEVENS POINT  CLOUDY    57  57  99 N7        29.80S FOG
WAUPACA        CLEAR     59  59  99 NW5       29.78S FOG
WAUTOMA        CLEAR     58  58 100 CALM      29.79S FOG
WISC RAPIDS    MOCLDY    57  54  89 NW5       29.81S FOG
CAMP DOUGLAS   FOG       54  54 100 W6        29.80S VSB 1/2
$$

WIZ011>013-019>022-031-037>040-048>050-301000-
NORTHEAST WISCONSIN

CITY           SKY/WX    TMP DP  RH WIND       PRES   REMARKS
ANTIGO         PTCLDY    56  56  99 N6        29.81S
SHAWANO        PTCLDY    60  58  94 CALM      29.78R FOG
OCONTO         CLOUDY    62  62 100 N5        29.76R
STURGEON BAY   CLOUDY    61  55  82 SE7       29.77F
GREEN BAY      MOCLDY    62  60  93 NW5       29.75F
MANITOWOC      MOCLDY    63  61  93 MISG      29.75S
APPLETON       CLOUDY    59  59 100 NW6       29.77S
CLINTONVILLE   CLEAR    N/A N/A N/A CALM      29.77F
OSHKOSH        MOCLDY    60  57  89 W6        29.76F FOG
$$

WIZ032>034-041-042-053>061-301000-
SOUTHWEST WISCONSIN

CITY           SKY/WX    TMP DP  RH WIND       PRES   REMARKS
LA CROSSE      FOG       61  60  97 N5        29.82S VSB 3/4
SPARTA         FOG       53  52  98 CALM      29.83S VSB 1/4
VIROQUA        CLEAR     57  57 100 W5        29.83S
BOSCOBEL       FOG       59  57  93 S3        29.82S VSB 1/4
PRAIRIE DU CHI CLEAR     58  57  96 CALM      29.82S FOG
PLATTEVILLE    CLEAR     59  58  98 NW3       29.81S
$$

WIZ056-057-062-063-064-067-068-301000-
SOUTH CENTRAL WISCONSIN

CITY           SKY/WX    TMP DP  RH WIND       PRES   REMARKS
REEDSBURG      FOG       56  56 100 CALM      29.80S VSB 1/4
BARABOO/DELLS  FOG       56  55  96 NW5       29.80S VSB<1/4
LONE ROCK      FOG       59  58  96 CALM      29.81S VSB 1/4
MINERAL POINT  CLEAR     59  57  94 NW5       29.81S FOG
MADISON        CLEAR     60  58  92 NW3       29.78F
MIDDLETON      CLOUDY    61  60  99 W9        29.80S
WATERTOWN      CLEAR     57  57 100 CALM      29.77S
MONROE         CLEAR     59  59 100 NW7       29.80R
JANESVILLE     CLEAR     59  55  88 NW5       29.78S FOG
$$

WIZ051-052-058>065-066-070>072-301000-
SOUTHEAST WISCONSIN

CITY           SKY/WX    TMP DP  RH WIND       PRES   REMARKS
MILWAUKEE      MOCLDY    64  60  87 NW6       29.76S
WAUKESHA       PTCLDY    57  55  94 W7        29.78S
MILWAUKEE/TIMM PTCLDY    61  54  77 NW3       29.77S
RACINE         CLOUDY    63  60  90 CALM      29.77S FOG
BURLINGTON     MOCLDY    58  57  96 CALM      29.77S
KENOSHA        MOCLDY    62  60  93 W6        29.77S FOG
FOND DU LAC    CLEAR     59  57  93 CALM      29.77S
SHEBOYGAN      CLEAR     61  58  90 W6        29.75S
WEST BEND      CLEAR     59  55  88 NW3       29.77S
JUNEAU         CLEAR     58  57  96 CALM      29.78S
$$

LSZ147-162-301000-
LAKE SUPERIOR

STATION/POSITION TIME  TEMP    WIND        PRES    WAVE
                       AIR SEA DIR/SP/G            HT/PER
                 (UTC) (F)     (DEG/KT/KT) (MB)    (FT/S)
W MID LAKE BUOY  0850   42 38  360/  6/  8 1013.0R   1
DEVILS ISLAND    0900   56      70/ 16/ 18 1012.4R
SAXON HARBOR     0818   59      50/ 20/ 25 1011.5S
$$

LMZ867-665-643>646-301000-
LAKE MICHIGAN

STATION/POSITION TIME  TEMP    WIND        PRES    WAVE
                       AIR SEA DIR/SP/G            HT/PER
                 (UTC) (F)     (DEG/KT/KT) (MB)    (FT/S)
CHAMBERS ISLAND  0800   64      50/  4/  5 1007.8F
S GREEN BAY BUOY 0900   66 71   10/ 14/ 16 1008.6
N MID LAKE BUOY  0850   56 54  190/  4/  4 1008.2F   1
NORTHPORT PIER   0800   61     140/  8/ 10 1007.8F
SISTER BAY       0844   61      CALM  /  3   N/A
ALGOMA LAKESHORE 0810             CALM       N/A
KEWAUNEE LAKESHO 0800   61     110/  5/  7 1006.8S
SHEBOYGAN LAKESH 0900   62     280/  5/  6 1007.6S
PORT WASHINGTON  0800   62     290/  2/  3 1008.5F
ATWATER BUOY     0900   62 59  320/  2/  2 1009.1S
MILWAUKEE LAKESH 0800   61      CALM  /  1   N/A
KENOSHA   LAKESH 0900   64     290/  4/  6 1007.8S
$$

TC  - TEMPERATURE IN CELSIUS
VSB - VISIBILITY IN STATUTE MILES
WCI - WIND CHILL INDEX
HX  - HEAT INDEX




USA.gov is the U.S. government's official web portal to all federal, state and local government web resources and services.